GEFSMW_500_meanwind_150.txt.gz
Wind_Speed
7 7 6 5 3 3 2 2 2 1 1 1 2 3 3 4 5 5 7 7 8 9 9 10 11 12 12 12 11 10 9 9 9 8 8 7 6 6 5 4 3 2 2
9 8 7 5 5 4 3 3 2 2 2 2 2 2 3 3 4 5 6 7 8 8 8 10 11 12 12 12 11 11 10 9 9 8 8 7 7 6 6 5 4 3 3
10 8 7 7 6 5 4 4 3 3 3 3 3 2 3 3 4 5 6 7 7 7 8 9 10 11 12 12 11 11 10 9 9 9 8 7 7 7 6 5 5 4 4
9 8 7 7 6 6 5 5 4 3 3 3 3 3 3 4 5 6 6 6 7 7 8 9 10 11 12 12 12 11 11 10 9 8 8 8 8 7 6 6 5 5 5
8 8 8 7 6 7 6 6 5 5 4 4 4 4 4 4 5 5 5 6 6 7 8 9 9 10 11 12 12 11 11 10 9 9 8 8 8 7 7 6 6 6 6
8 8 8 7 7 8 7 7 6 5 5 5 5 5 5 4 4 4 4 5 5 6 7 8 9 10 11 12 12 12 11 11 10 9 9 8 8 7 7 7 7 7 7
8 8 7 7 8 8 8 7 7 6 6 6 6 5 5 5 5 4 4 5 5 6 7 8 9 10 11 12 12 12 12 11 10 10 9 9 9 8 8 8 8 8 8
8 8 8 8 8 8 8 8 8 7 7 6 6 6 6 6 5 5 5 5 5 6 7 8 8 9 11 11 12 12 12 11 11 10 10 10 9 9 9 9 9 10 10
9 9 9 9 8 8 8 8 8 7 7 7 7 7 7 7 6 6 5 5 5 6 7 8 8 9 10 11 12 12 12 11 11 11 12 11 10 10 11 11 11 11 11
9 9 9 9 9 8 8 8 7 7 7 7 7 8 8 8 7 7 6 6 6 7 8 8 8 9 10 11 12 13 13 12 12 12 12 12 11 11 12 12 12 12 12
9 9 9 8 8 8 7 7 7 8 8 8 8 8 8 8 8 8 7 7 7 7 8 9 9 9 10 11 12 13 14 14 13 14 14 14 14 14 13 13 14 14 15
10 9 9 9 9 8 8 8 8 8 9 9 9 9 9 8 8 8 7 7 8 8 9 10 10 10 11 12 13 14 14 15 15 16 16 16 16 16 16 15 16 17 17
10 9 9 9 9 10 10 9 9 9 10 10 10 10 9 9 9 8 8 9 9 10 10 11 12 12 13 13 14 15 15 16 17 17 18 18 18 18 18 18 19 20 20
11 11 11 11 11 11 10 10 10 10 10 10 10 9 9 9 8 9 9 10 10 10 11 12 12 14 14 15 16 17 17 18 18 19 20 20 20 20 20 21 22 22 23
12 12 12 12 12 12 11 11 11 11 11 11 10 10 10 10 10 10 10 11 12 12 13 13 15 16 16 17 18 19 19 20 20 21 22 22 23 23 24 24 25 25 26
12 12 12 12 12 12 12 12 12 12 12 12 12 11 11 12 12 12 13 14 14 14 15 16 17 17 18 19 20 21 21 22 22 23 24 25 26 26 27 27 28 28 28
13 13 13 13 13 13 13 13 13 14 13 13 13 13 13 13 14 15 15 15 16 16 17 18 19 20 21 22 22 23 23 24 24 25 26 27 28 28 29 30 31 31 31
14 14 14 14 14 14 14 14 14 14 14 14 14 14 15 16 16 17 17 17 18 19 19 20 21 22 23 24 24 25 25 26 27 28 29 30 30 31 32 32 33 34 35
14 15 15 15 15 15 15 16 16 16 15 15 15 16 16 17 18 18 18 19 20 20 21 22 23 24 25 26 26 27 28 29 29 30 31 32 32 33 34 35 35 36 37
15 16 16 16 17 17 17 17 17 17 16 17 17 18 18 19 20 20 20 21 22 22 23 24 25 26 27 28 28 29 30 31 32 32 33 34 35 36 37 37 38 39 40
16 16 16 17 17 17 17 17 17 18 19 19 19 20 20 21 21 22 23 24 24 25 26 26 27 28 29 30 31 32 32 33 34 34 36 37 38 39 39 40 41 42 43
18 18 18 18 18 18 18 19 19 20 21 21 21 22 22 23 24 24 25 26 26 27 28 28 29 30 31 32 33 34 34 35 36 37 38 39 40 40 41 42 44 45 46
19 19 19 19 20 20 20 21 22 22 22 23 23 23 24 25 26 26 27 27 28 29 29 30 31 32 33 34 35 36 37 38 39 40 41 41 41 42 43 44 46 47 48
20 20 20 20 21 21 22 23 23 24 24 24 25 26 26 27 27 28 29 29 30 31 32 33 34 35 35 36 37 38 39 40 41 42 42 43 43 44 45 46 47 49 50
21 21 22 22 22 22 23 24 25 25 26 26 27 28 28 29 30 30 31 32 33 35 35 36 37 37 38 39 40 41 42 43 43 44 44 44 45 46 47 49 50 51 51
22 23 23 24 24 25 25 26 27 28 28 29 29 30 31 31 32 33 34 35 36 37 38 39 40 41 41 42 43 43 44 45 45 46 46 47 48 49 50 51 52 52 52

GEFSMW_500_meanwind_156.txt.gz
Wind_Speed
10 9 7 7 6 5 5 4 3 2 1 1 0 0 1 2 3 4 5 6 6 7 8 9 9 10 10 9 9 8 7 7 7 7 6 6 5 4 3 3 2 2 2
10 9 8 7 6 5 5 4 3 2 2 1 1 1 1 2 2 3 4 5 6 6 7 8 9 10 10 9 9 8 8 8 7 7 7 6 6 5 4 3 2 2 1
10 10 9 8 7 6 6 5 4 3 2 2 2 2 2 1 2 3 4 5 5 6 6 8 8 9 9 9 9 8 8 7 7 7 7 6 6 5 4 4 2 1 1
11 10 9 8 7 7 7 6 5 4 4 3 3 3 3 2 1 2 3 4 5 5 6 7 8 9 9 9 9 8 8 7 7 6 6 6 6 5 5 4 3 2 0
11 10 9 8 8 8 7 6 6 6 5 4 4 3 4 3 2 2 2 3 4 5 5 6 7 8 9 9 8 8 7 7 7 6 6 6 6 6 5 4 3 2 2
11 10 10 9 8 8 8 7 7 6 6 5 4 4 4 4 3 3 2 2 3 3 4 5 5 7 7 8 8 8 8 7 7 6 6 5 5 5 5 4 4 3 3
11 10 10 9 9 8 8 7 7 6 6 6 5 5 4 4 4 4 4 3 3 3 3 4 4 5 6 6 7 7 8 7 7 6 6 6 5 5 5 5 4 5 4
11 11 10 9 8 8 8 7 7 7 7 6 6 5 5 5 5 5 5 5 4 4 3 3 3 4 5 5 6 6 7 7 7 6 7 7 6 6 6 6 6 6 6
10 10 9 8 8 8 8 7 7 7 7 7 7 6 6 6 6 6 6 5 5 5 4 4 3 4 4 5 5 6 7 7 7 7 7 7 7 6 6 7 7 7 7
8 9 9 9 8 8 8 8 8 7 8 8 7 7 7 7 7 7 7 6 6 6 5 5 5 4 4 5 6 6 7 7 8 8 8 8 7 8 8 8 8 8 8
8 9 9 9 9 9 9 9 8 8 8 8 8 8 8 8 8 8 8 8 7 7 6 6 6 6 5 6 6 7 7 8 8 9 9 9 9 9 9 9 9 10 10
8 9 9 9 9 10 10 10 9 9 9 9 9 9 9 9 9 8 8 9 9 8 8 7 7 7 7 7 8 8 8 9 9 9 9 10 10 10 11 11 11 11 12
9 9 10 10 11 11 11 11 10 10 9 9 10 10 10 10 9 9 8 9 9 9 9 9 8 9 9 9 10 10 10 11 11 11 11 11 11 12 12 13 14 14 14
9 10 11 11 11 12 12 11 11 11 10 10 10 10 10 10 9 9 9 9 9 9 10 10 10 10 11 11 11 12 12 13 13 13 13 14 14 14 15 16 16 17 17
10 11 11 12 12 12 12 12 12 11 11 11 10 10 10 10 10 10 10 10 10 11 11 11 11 12 12 12 12 13 14 14 14 15 15 16 16 17 18 19 19 20 21
10 10 11 12 12 13 13 13 13 12 12 12 11 11 12 12 11 11 11 11 11 12 12 13 13 13 13 13 14 15 15 16 16 17 18 18 19 20 21 22 23 24 25
9 10 12 13 13 13 13 13 13 13 13 13 12 12 12 12 13 13 12 12 13 13 14 15 15 14 14 15 16 17 17 18 19 19 20 21 22 23 23 24 26 27 27
10 11 12 13 14 14 14 14 14 13 14 14 14 13 13 14 14 15 15 15 15 15 16 16 16 17 17 17 18 19 19 20 21 22 23 23 24 25 27 27 28 29 30
12 12 13 13 14 14 14 14 14 14 14 15 15 15 15 15 15 16 16 17 17 17 17 18 18 19 19 20 20 21 22 22 23 24 25 26 27 28 29 30 31 32 33
13 13 13 13 14 14 14 15 15 15 16 16 17 17 17 17 17 18 18 18 19 19 20 20 20 21 22 23 23 24 24 25 26 27 28 29 30 31 32 33 34 35 36
14 14 14 14 14 15 15 16 16 17 17 18 18 18 18 19 19 19 20 20 20 21 21 22 22 23 24 25 26 26 27 28 29 30 31 32 33 34 35 36 37 38 39
15 15 15 15 15 15 16 16 17 18 18 19 19 19 20 20 21 21 21 22 23 23 23 24 24 25 26 27 28 29 30 31 32 33 34 35 37 38 38 39 40 41 41
17 17 16 16 16 16 17 17 18 19 20 21 21 21 22 22 23 23 24 24 25 25 25 26 27 28 29 30 31 32 33 34 35 36 37 38 40 40 41 42 42 43 43
19 19 18 19 19 19 20 20 20 21 22 22 23 24 24 25 25 26 27 27 28 28 29 29 30 31 32 33 35 36 37 38 39 39 40 41 42 42 43 43 44 45 46
20 20 20 20 21 21 21 21 22 23 23 24 25 25 26 27 28 28 29 30 31 32 32 33 34 35 35 37 38 39 40 41 42 42 43 43 44 44 44 45 46 47 48
22 23 23 23 23 23 23 24 24 25 25 26 27 28 28 29 30 31 32 33 34 35 36 37 37 38 39 40 41 42 42 43 44 44 44 45 45 46 47 48 49 50 50

GEFSMW_500_meanwind_162.txt.gz
Wind_Speed
11 10 9 8 8 7 6 5 4 3 2 1 1 0 1 2 3 4 4 5 6 7 7 8 8 8 7 7 7 7 6 6 5 5 5 4 4 4 3 3 3 3 4
12 11 10 9 8 7 6 5 4 4 3 2 1 1 1 2 3 3 4 4 5 6 7 7 8 7 7 7 7 7 7 6 6 6 5 5 4 4 4 3 3 3 4
13 12 11 10 9 8 7 6 5 5 4 3 2 2 2 2 2 3 3 3 3 4 5 6 7 7 7 7 7 6 6 7 6 6 5 5 5 4 3 3 3 3 3
13 12 11 10 9 8 7 7 5 5 5 4 3 2 2 1 2 2 2 3 3 3 4 5 5 6 6 6 6 6 6 6 6 6 5 5 5 4 3 2 2 2 2
13 13 12 10 9 9 8 7 5 5 5 5 4 4 3 3 2 2 2 3 2 2 3 4 4 4 5 5 5 5 5 5 5 5 5 4 4 4 3 2 1 1 1
13 12 12 11 10 9 8 7 6 6 6 6 5 5 4 4 3 3 3 3 3 3 3 3 3 3 3 4 4 4 4 5 4 4 4 4 4 3 2 2 2 1 1
12 12 11 10 10 9 9 8 7 7 7 7 7 6 6 5 5 4 4 4 4 4 4 3 3 3 3 3 3 4 4 4 4 4 4 4 4 3 3 2 2 2 2
12 11 11 10 10 10 9 8 8 8 8 8 8 7 6 6 6 6 5 5 5 5 5 5 5 4 4 4 4 4 4 4 4 4 4 5 4 3 3 3 3 3 3
11 12 12 11 10 9 9 8 8 9 9 9 9 8 7 7 7 7 7 7 7 7 7 7 6 6 6 5 5 4 4 4 5 5 4 5 5 4 4 4 4 5 5
11 11 12 11 10 10 9 9 9 9 9 9 9 9 9 8 8 8 7 8 8 8 9 8 7 7 7 7 6 5 5 5 5 6 5 6 5 5 6 6 6 6 7
11 11 11 11 11 10 10 9 9 9 9 9 9 9 9 9 9 9 9 9 9 9 9 9 9 8 8 8 8 7 7 7 7 7 7 7 7 6 7 7 8 8 8
11 11 11 11 11 11 11 10 9 9 9 9 10 10 10 10 10 10 10 10 10 10 10 9 9 9 9 9 9 8 9 9 9 9 9 8 8 8 8 9 9 10 11
11 11 11 11 11 11 10 10 10 10 10 10 11 11 11 11 11 11 10 10 10 10 10 10 10 10 10 9 9 10 10 11 11 11 10 10 10 10 10 11 12 13 13
10 11 11 11 11 11 11 11 11 11 11 11 11 12 12 11 11 11 11 11 11 11 11 11 10 10 10 10 11 11 12 13 13 13 12 12 12 13 13 14 14 15 16
11 11 11 12 11 11 12 12 12 12 13 12 12 12 12 12 12 12 12 12 12 12 12 12 12 12 12 12 12 13 14 14 14 15 15 15 15 15 16 16 17 18 19
11 12 12 12 12 12 12 12 13 13 13 13 13 13 13 13 13 13 13 13 13 13 13 14 13 14 14 14 15 15 16 16 16 16 17 17 18 18 19 20 20 21 22
12 13 12 12 13 13 13 13 13 13 14 14 14 14 14 14 14 14 14 14 15 14 14 15 15 15 16 17 17 18 18 18 18 18 19 19 20 21 22 23 24 24 25
13 14 14 14 14 14 14 14 14 14 14 14 15 14 14 15 15 15 16 16 16 16 16 16 17 17 18 19 19 19 19 20 20 20 21 22 22 23 24 25 26 26 27
13 14 15 15 15 15 15 15 15 15 15 16 16 16 16 16 17 17 17 18 18 18 18 18 19 19 20 21 21 21 22 22 22 23 24 24 25 26 26 27 28 29 30
14 14 15 15 16 16 16 16 16 16 17 17 17 18 18 18 18 18 19 19 19 19 19 20 20 21 22 23 23 24 24 25 25 26 27 28 28 29 30 31 32 33 33
16 15 16 16 16 17 17 17 17 17 18 18 18 19 19 19 19 20 20 20 20 20 21 21 22 23 23 24 25 26 27 28 29 29 30 31 31 32 33 34 35 36 37
17 17 17 17 17 18 18 18 19 19 18 19 19 20 21 21 21 22 22 22 22 23 23 23 24 25 26 27 28 29 30 30 31 32 33 33 34 35 36 38 39 39 40
18 18 18 18 18 18 19 20 20 20 19 20 21 21 22 23 23 23 24 24 25 25 26 26 27 28 29 29 30 31 32 33 34 35 36 37 38 39 40 41 42 43 43
18 19 19 19 19 20 20 20 21 21 21 21 22 23 24 25 25 26 26 26 27 27 28 29 30 31 31 32 33 34 35 36 37 38 39 40 41 42 42 43 44 44 45
19 19 19 20 20 21 21 21 22 23 23 24 24 25 26 26 27 28 28 29 29 30 31 31 32 33 34 35 36 37 38 39 40 41 41 42 43 43 44 45 46 46 47
21 21 21 21 22 22 22 23 24 24 25 26 27 27 28 29 29 30 30 31 32 32 33 34 35 36 37 38 39 40 40 41 42 42 43 44 45 46 46 47 48 49 50

GEFSMW_500_meanwind_168.txt.gz
Wind_Speed
12 12 11 10 10 9 8 7 6 6 5 4 3 2 1 1 2 2 3 3 4 4 5 5 5 5 5 4 4 3 3 3 2 2 2 2 3 3 4 4 4 5 5
12 11 11 10 10 9 8 7 7 6 5 4 4 3 2 2 2 2 2 2 3 4 4 5 5 4 4 4 4 4 3 4 3 3 2 2 2 2 3 4 5 5 5
12 11 12 11 10 9 8 8 7 7 6 5 5 4 3 3 3 2 2 2 2 3 4 4 4 4 4 4 4 4 3 3 3 2 2 2 2 2 2 3 4 5 5
13 12 12 11 11 10 9 8 7 7 6 6 6 5 4 4 3 3 2 2 2 3 3 4 4 4 4 3 3 3 3 2 2 2 2 1 1 1 1 2 3 4 4
13 13 12 11 11 10 9 8 8 7 7 7 6 5 5 4 4 4 3 3 2 3 3 4 4 4 4 3 2 2 2 2 1 1 1 1 1 1 0 1 3 3 3
13 13 12 11 11 11 10 9 9 8 8 7 7 6 6 5 5 4 3 3 3 3 3 4 4 4 4 4 3 2 2 2 1 2 1 1 1 1 1 1 2 3 3
12 12 12 11 11 11 11 10 10 9 9 8 8 7 7 6 6 5 4 4 4 3 3 4 4 4 5 4 4 4 3 3 3 3 3 2 2 1 2 2 3 3 4
11 11 11 12 12 11 11 11 11 10 10 9 9 9 8 8 7 6 6 5 4 4 4 4 4 5 5 5 5 5 4 4 4 3 3 3 2 2 2 3 4 4 5
11 11 11 12 12 12 11 11 11 11 11 11 11 10 10 8 8 7 7 6 6 6 5 5 5 6 7 6 6 6 5 5 4 4 4 4 4 4 4 4 5 6 6
11 11 12 12 12 12 11 11 11 11 12 12 11 10 10 9 9 8 8 7 7 7 7 7 7 7 7 8 7 7 6 6 5 5 6 6 5 6 6 6 6 6 7
11 11 12 11 11 11 11 11 11 11 11 12 11 10 10 10 9 9 9 9 8 8 8 8 8 8 8 8 8 7 7 7 7 7 7 7 7 7 7 7 8 8 8
10 11 12 11 11 11 11 11 11 10 10 10 10 10 10 9 10 9 10 10 10 10 9 9 9 9 9 9 9 9 8 8 8 8 8 8 8 8 8 9 9 10 10
9 10 11 11 11 11 11 10 10 10 10 10 11 11 11 10 10 10 10 10 11 11 11 10 10 10 9 9 9 9 9 9 10 10 10 10 10 10 10 11 11 12 12
9 10 11 12 12 11 11 11 10 11 11 11 11 11 11 11 11 11 11 11 12 12 12 12 12 12 11 11 11 10 10 11 11 12 12 12 12 12 13 13 14 14 15
9 11 11 12 12 11 11 11 11 11 11 12 12 13 12 12 13 13 13 13 13 13 13 13 13 13 13 13 12 12 12 12 13 13 14 14 14 14 15 16 16 17 18
9 10 11 13 13 12 12 12 12 12 13 14 14 13 13 13 13 13 14 14 14 14 14 14 14 14 14 13 13 14 14 14 15 15 16 16 16 17 18 18 19 20 20
11 11 12 12 13 13 13 13 13 14 14 14 14 14 14 13 14 14 15 15 15 15 15 15 15 15 15 15 15 15 15 16 16 17 18 18 19 20 20 21 21 22 23
12 13 13 13 14 15 15 15 14 14 15 15 15 15 15 15 15 15 16 16 16 16 16 16 16 16 16 16 16 17 17 18 18 19 20 20 21 22 23 23 24 24 25
12 13 13 14 14 15 16 16 15 15 16 16 16 16 16 16 16 17 17 17 17 17 17 16 17 17 18 18 19 19 20 20 21 22 22 23 24 25 26 26 27 27 28
13 13 13 13 14 15 17 17 17 17 17 17 17 17 17 18 18 18 18 18 18 17 17 17 18 19 20 20 21 22 22 23 24 25 26 27 28 28 29 29 30 30 30
14 14 14 14 14 14 15 16 17 17 18 18 18 18 18 18 19 20 19 19 19 19 19 19 20 21 21 22 23 24 25 25 26 27 28 29 30 31 31 32 33 33 34
15 15 15 15 16 16 16 17 17 17 17 17 18 18 19 20 20 21 21 20 20 21 21 22 22 23 23 24 25 26 27 28 29 29 30 31 32 32 33 34 35 36 37
16 16 17 17 17 18 18 18 18 18 18 18 19 19 20 20 20 20 20 21 22 23 23 23 24 24 25 26 28 28 29 30 31 32 33 34 34 35 36 37 38 39 40
18 18 18 18 18 18 18 19 18 18 19 19 20 21 21 21 21 21 22 23 23 24 25 25 26 27 28 29 30 31 31 32 33 34 35 36 37 38 39 40 41 41 42
19 19 19 19 19 19 19 19 19 20 20 21 21 22 22 22 22 23 24 24 25 26 27 28 29 29 30 31 32 33 34 34 35 36 37 38 39 40 41 42 42 43 44
21 21 20 20 20 20 21 21 21 21 22 22 23 23 24 24 25 25 26 26 27 28 29 29 30 31 31 32 33 34 36 37 38 38 39 40 41 42 43 43 44 46 47

GEFSMW_500_meanwind_174.txt.gz
Wind_Speed
9 8 8 9 9 8 8 7 6 5 4 4 3 3 3 3 3 4 5 5 5 5 6 6 6 7 6 6 6 5 5 5 4 3 3 2 1 1 1 0 0 0 1
9 8 8 7 8 8 7 6 6 5 5 4 3 3 3 2 3 3 4 5 5 5 5 5 6 6 6 5 5 5 5 5 4 4 3 2 1 1 1 1 0 0 1
8 8 8 8 8 8 7 6 6 6 5 4 3 4 3 2 2 3 4 4 4 4 4 4 5 5 5 5 5 4 4 4 4 3 3 2 2 2 2 1 1 1 1
9 8 8 8 8 8 8 7 6 6 5 4 4 4 4 3 3 3 4 4 4 4 4 4 5 5 5 4 4 4 4 4 4 3 3 2 2 1 1 1 1 1 1
9 9 9 9 9 8 8 7 7 6 5 5 5 5 5 4 3 3 3 4 4 4 4 4 4 5 5 4 4 3 3 3 3 3 3 3 2 2 2 2 2 2 2
9 10 10 10 9 9 8 7 7 7 6 5 5 5 5 5 5 4 4 4 4 4 4 4 4 4 4 4 4 4 4 4 4 4 3 3 3 3 2 2 2 3 3
9 10 10 10 10 9 9 8 8 8 7 6 6 6 6 6 6 5 5 5 5 5 4 4 4 4 4 4 3 4 4 4 4 4 4 4 3 3 3 3 3 4 4
9 10 10 11 11 10 9 9 9 8 7 7 7 7 7 7 7 6 6 5 6 6 5 5 4 4 4 4 4 4 5 5 5 5 5 4 4 4 4 4 4 5 5
8 9 9 10 10 10 10 10 10 9 8 8 8 9 8 8 7 7 6 6 6 7 6 5 5 5 5 5 5 6 6 6 6 6 6 5 5 6 6 6 6 6 7
9 9 9 10 10 10 10 10 9 9 8 9 9 8 8 8 7 7 7 7 7 7 7 7 6 7 7 7 7 7 7 7 6 6 6 6 6 7 7 8 8 8 9
9 8 9 9 9 9 9 9 9 9 9 8 8 9 8 8 8 8 8 8 8 8 8 8 8 8 8 8 8 8 8 7 7 6 6 7 8 7 8 8 9 9 10
8 9 9 9 9 9 9 9 8 9 9 10 10 10 9 9 9 9 10 10 9 9 9 10 9 10 10 10 9 9 9 8 8 8 8 8 9 9 9 10 10 10 11
8 8 9 9 8 8 8 8 8 8 9 9 10 10 10 10 11 11 11 11 11 11 12 12 12 12 12 11 11 11 10 10 10 10 10 10 10 11 11 12 12 12 12
8 8 9 9 8 8 9 8 8 8 9 10 10 10 11 12 12 12 13 13 13 13 14 14 14 13 13 13 13 13 12 12 12 12 12 12 13 13 13 13 14 14 15
9 9 9 9 9 10 10 10 10 10 10 10 11 11 12 12 12 13 13 14 14 15 15 15 15 15 15 15 15 15 15 14 14 14 14 14 15 15 15 15 16 17 17
10 10 11 10 10 11 11 11 11 11 11 12 12 12 12 13 13 13 13 14 15 15 16 15 16 16 16 17 17 17 17 16 16 16 16 16 17 17 17 18 19 19 20
11 11 11 11 11 12 13 13 13 13 13 13 13 13 13 14 14 14 15 15 16 16 16 17 17 17 17 18 18 18 18 18 17 17 18 18 19 19 20 20 21 22 23
11 11 12 12 12 13 14 14 14 14 14 14 14 14 14 15 15 16 16 16 16 16 17 17 18 18 18 18 19 19 19 19 19 19 20 21 21 22 22 23 24 25 26
11 12 12 12 13 13 14 15 15 16 16 16 16 16 16 16 17 17 16 16 17 17 18 18 18 18 18 19 19 20 20 21 21 22 23 23 24 24 25 26 27 28 29
12 12 13 13 14 14 15 15 16 17 17 17 17 18 18 17 17 17 17 18 18 19 19 19 19 19 19 20 20 21 22 23 23 24 25 26 27 27 28 29 29 30 31
12 12 13 13 13 14 15 15 16 17 17 17 18 18 18 18 18 18 19 19 20 20 19 19 20 20 21 22 22 23 23 24 25 25 26 27 28 29 30 30 31 32 33
14 14 14 14 14 15 15 15 16 17 17 17 17 18 18 19 19 20 20 20 20 20 21 21 21 22 23 23 23 24 25 26 26 27 28 29 30 30 31 32 33 34 35
16 16 16 16 16 16 16 16 16 17 18 18 18 19 19 20 20 20 21 21 21 22 22 23 24 24 24 25 26 27 27 27 28 29 30 31 32 33 33 34 35 36 37
17 18 18 18 18 18 17 18 18 18 18 19 20 20 20 21 21 21 22 22 22 23 24 25 25 26 27 28 29 29 29 30 30 31 32 33 34 35 36 37 38 39 40
18 18 19 19 19 19 19 19 20 20 21 21 21 22 22 22 22 23 23 23 24 24 25 26 27 27 28 29 29 30 30 31 32 33 34 35 36 37 38 39 40 41 41
20 20 20 20 20 20 21 21 21 22 22 22 23 23 24 24 24 24 25 25 26 26 27 27 28 28 29 30 31 31 32 33 34 35 36 36 37 38 39 40 41 42 43

GEFSMW_500_meanwind_180.txt.gz
Wind_Speed
9 9 9 8 8 8 8 7 7 6 5 4 3 2 2 1 1 1 2 3 3 3 3 4 4 4 4 4 4 4 4 3 2 2 2 2 2 2 2 2 2 3 4
10 10 10 9 9 8 8 7 7 6 6 5 4 3 3 2 1 1 2 2 2 3 3 4 4 4 4 3 3 3 3 3 2 2 2 2 1 1 1 1 2 2 3
10 11 10 10 9 8 8 6 7 7 6 6 5 4 4 3 2 1 1 1 2 3 3 3 3 4 3 3 2 2 2 2 1 1 1 1 0 1 1 1 1 2 3
10 10 10 10 10 9 8 7 7 7 7 6 5 5 4 3 2 1 1 2 2 3 3 3 3 3 3 2 2 1 1 1 1 1 0 0 1 1 1 0 1 2 2
10 9 10 9 9 10 9 8 8 8 8 7 6 5 5 4 3 2 2 2 2 2 3 3 3 3 3 2 2 1 1 1 1 1 1 1 1 1 1 1 2 2 2
10 10 10 9 10 11 10 9 8 8 8 7 6 5 5 5 4 4 3 4 3 3 3 3 3 3 3 2 2 1 1 2 2 2 2 2 3 3 3 3 3 3 3
10 10 10 9 10 11 11 10 9 8 8 8 6 5 5 5 4 4 4 4 3 3 4 4 3 3 3 3 2 2 2 3 3 3 4 4 5 5 4 5 4 4 5
10 10 10 9 10 12 12 11 10 9 9 8 7 6 6 5 5 5 4 4 3 3 3 3 3 4 4 4 4 3 3 3 4 4 5 5 5 5 5 6 6 6 6
9 9 10 10 11 12 12 11 10 9 10 9 7 7 7 7 6 5 5 5 5 4 4 4 4 4 5 5 5 5 4 4 4 5 5 6 6 6 7 7 7 7 7
9 9 10 10 11 11 11 11 10 10 9 10 9 8 7 7 7 7 6 6 6 6 6 6 6 6 6 6 6 6 6 6 6 6 7 7 7 7 8 9 9 9 9
9 10 10 9 10 11 11 11 11 10 10 10 10 9 9 9 9 8 7 7 7 7 7 8 8 8 8 7 7 7 8 9 9 9 9 9 9 9 10 10 10 11 11
9 9 9 9 9 10 10 11 11 11 11 11 11 11 10 10 9 9 9 8 8 8 9 9 9 9 9 9 10 10 10 11 11 11 11 11 11 11 12 12 13 13 13
8 8 9 10 10 10 10 11 11 11 12 12 12 12 11 10 10 9 9 9 10 10 11 11 11 11 11 11 11 12 12 12 13 13 12 12 13 13 14 14 14 15 15
8 9 10 10 9 9 10 10 11 11 12 12 12 12 12 11 11 11 11 11 11 12 12 12 12 13 13 14 14 14 14 14 14 14 14 15 15 15 15 16 16 17 17
8 9 10 10 9 9 10 10 10 11 11 12 12 12 12 12 11 12 12 12 13 13 13 14 14 14 14 15 15 15 15 15 15 15 16 16 16 16 17 17 18 18 19
8 9 10 10 10 10 10 10 10 11 11 11 12 13 13 13 12 12 13 14 14 14 15 14 14 15 15 16 16 16 16 16 16 16 17 17 17 18 19 19 20 20 21
8 9 10 10 10 10 10 11 11 11 11 11 12 13 14 14 14 14 14 15 15 15 15 16 16 16 16 17 17 18 18 18 19 19 19 19 20 20 21 21 22 22 23
8 9 10 11 11 11 10 11 11 12 12 12 13 13 14 15 15 15 15 15 16 16 17 17 18 18 18 19 19 19 19 20 20 21 21 21 22 22 23 23 23 24 24
9 10 10 11 11 11 11 11 12 13 13 14 14 14 15 15 16 16 16 16 17 17 18 18 18 19 19 20 20 20 20 21 21 22 22 22 23 24 24 25 25 26 27
10 10 10 10 11 11 11 12 12 13 14 14 15 15 15 15 15 16 17 18 18 18 18 19 19 20 20 21 21 22 21 21 22 23 23 23 24 25 26 27 27 28 29
10 10 10 10 11 11 11 12 12 13 14 14 15 15 16 16 17 17 18 19 19 19 20 21 21 21 21 21 22 22 23 23 24 24 25 25 26 28 28 28 29 30 31
12 12 12 12 12 12 13 13 13 14 14 15 15 16 17 18 18 19 19 19 19 20 21 21 21 22 22 22 23 24 24 24 25 26 26 27 29 30 30 30 31 32 33
13 13 14 14 14 14 14 15 15 15 15 15 16 17 18 19 20 20 20 20 20 21 21 22 22 22 23 24 24 25 25 26 26 27 28 29 30 31 32 32 33 34 34
15 15 15 15 15 15 15 16 16 17 17 17 17 18 19 20 20 20 21 21 21 22 22 23 23 24 25 25 26 27 27 28 28 29 30 31 32 33 34 34 35 35 36
16 16 16 16 17 17 17 17 18 18 19 19 19 19 20 21 21 21 21 22 22 23 23 24 25 25 26 26 27 28 29 30 30 30 31 32 33 34 35 36 37 38 38
17 17 17 18 18 18 18 18 18 19 19 20 20 20 21 21 22 22 23 23 24 24 24 25 25 26 27 28 29 29 30 31 31 32 32 33 34 35 36 37 37 38 39

GEFSMW_500_meanwind_186.txt.gz
Wind_Speed
10 9 10 10 10 10 9 9 9 8 7 6 6 5 3 3 2 2 2 2 3 3 4 5 5 5 4 4 3 2 2 1 1 1 1 1 1 2 1 1 1 1 2
11 10 10 10 10 10 9 9 8 8 7 7 6 5 4 4 3 2 2 2 3 3 4 4 5 5 4 3 2 2 2 1 1 0 0 1 1 2 2 1 2 2 2
11 10 11 10 9 9 9 9 9 8 7 7 6 6 5 4 3 2 1 1 2 3 4 4 5 5 4 3 2 2 2 1 1 0 1 1 1 2 2 2 2 3 3
10 10 10 10 9 8 8 8 8 8 7 7 6 5 5 4 4 3 2 1 2 3 3 4 4 4 4 3 3 2 2 2 1 1 1 1 2 2 3 3 3 4 4
10 10 10 10 10 9 9 9 9 8 7 7 6 6 5 5 4 3 2 2 2 3 3 4 4 4 4 4 3 2 2 2 2 1 1 1 2 2 3 4 4 4 5
12 12 11 10 10 10 10 9 9 8 8 7 7 7 6 5 5 4 3 3 3 3 4 4 4 4 4 4 3 3 3 2 2 2 2 2 3 3 4 5 5 6 6
12 13 13 12 12 12 11 10 9 9 9 8 8 7 6 6 6 5 5 4 3 4 4 4 4 4 4 4 3 3 3 3 3 3 3 4 4 4 5 6 6 7 7
11 11 12 12 11 12 12 11 11 11 10 9 8 8 8 7 7 6 5 5 4 5 5 5 5 5 5 4 4 4 4 5 5 5 5 5 6 6 7 7 7 8 9
11 11 11 11 11 12 12 12 12 11 11 10 9 9 9 8 8 7 7 6 6 6 6 6 6 5 5 5 5 5 6 6 6 6 7 7 7 8 8 8 9 10 10
11 11 10 11 11 12 12 12 12 13 12 11 11 11 10 9 9 9 8 8 8 7 7 7 7 7 7 7 7 7 7 8 8 8 9 9 9 9 9 10 11 11 12
10 11 10 11 12 12 12 12 13 13 12 11 12 11 11 11 11 11 10 10 9 8 8 8 8 8 8 8 9 9 9 9 9 10 10 11 11 11 12 12 13 14 14
10 10 10 10 11 11 12 12 12 13 12 12 12 12 12 12 12 12 11 11 10 10 10 10 10 10 10 10 10 10 10 11 11 11 12 12 13 14 15 15 15 16 16
9 9 10 10 11 11 12 12 12 12 12 12 12 13 13 12 12 12 12 11 11 11 11 12 12 12 12 12 12 12 12 12 13 13 14 14 15 15 16 17 17 17 18
9 9 10 10 10 11 12 12 11 11 11 11 12 12 13 13 13 13 13 13 13 12 13 13 13 13 14 13 14 14 14 14 15 15 16 16 17 17 17 18 18 18 19
8 9 10 10 10 10 10 11 11 11 11 11 12 12 13 13 13 14 14 14 14 14 14 14 14 15 15 15 16 16 16 17 17 18 18 18 18 18 18 19 19 20 20
8 9 9 10 10 11 10 10 11 12 12 12 12 12 13 13 14 14 15 15 15 15 15 15 16 16 17 17 17 18 18 19 19 19 19 20 20 19 19 20 21 21 22
9 9 10 11 11 11 11 11 12 12 12 12 13 13 13 13 14 15 15 16 16 17 17 17 18 18 18 19 19 20 20 20 20 21 21 21 21 21 21 22 22 23 23
10 11 11 11 12 12 12 12 12 12 12 12 13 13 14 15 15 15 16 17 17 18 19 19 18 19 19 20 20 20 21 21 21 22 22 22 22 22 23 24 24 24 25
12 12 12 12 12 12 12 13 13 12 12 13 14 14 15 15 16 16 17 17 17 18 18 18 19 19 20 20 21 21 21 22 22 22 22 22 23 23 24 25 25 26 27
12 12 12 12 12 12 12 12 13 13 13 13 14 14 15 15 16 16 17 16 17 17 18 18 19 20 21 21 21 22 22 23 23 23 23 24 24 25 26 26 27 28 29
11 12 13 13 13 13 13 13 13 13 13 14 14 14 15 15 16 16 16 16 16 17 18 19 20 21 21 22 22 23 23 23 24 24 24 25 26 27 28 28 29 30 31
12 12 12 13 13 13 13 13 13 14 14 14 14 14 15 15 16 16 16 17 17 18 19 20 21 22 22 23 23 24 24 24 24 25 26 26 28 29 30 30 31 32 32
13 13 13 13 14 14 14 14 14 14 15 15 15 16 16 16 17 17 17 18 19 20 20 21 21 22 23 23 24 24 25 25 25 26 27 28 29 30 31 32 32 33 34
14 14 14 14 14 14 15 15 15 15 16 16 16 16 16 17 17 17 18 19 20 21 21 21 22 22 23 24 24 25 25 26 27 28 29 29 30 31 32 33 34 35 36
15 15 15 16 16 16 16 16 17 17 17 17 17 17 17 18 18 19 19 20 21 22 23 22 23 23 24 25 26 26 27 29 29 30 30 30 31 32 33 34 35 36 37
17 17 17 17 17 18 18 18 18 18 19 18 18 18 18 19 20 20 21 22 22 23 24 24 24 25 25 26 27 28 29 29 30 29 30 31 32 33 34 35 36 37 38

GEFSMW_500_meanwind_192.txt.gz
Wind_Speed
10 11 10 10 10 9 9 9 9 8 7 7 7 6 6 5 4 3 2 2 1 2 3 3 3 3 3 2 1 1 1 1 1 1 2 2 3 3 3 3 4 5 5
10 10 10 10 9 9 9 8 8 8 7 7 7 7 6 5 4 3 3 2 1 2 2 2 3 3 3 2 2 1 1 1 0 0 1 2 3 3 3 4 4 4 5
10 10 10 10 10 9 9 8 8 8 7 7 8 7 7 6 5 4 3 2 2 1 2 2 3 3 2 2 2 1 1 1 1 1 1 2 3 4 4 5 5 5 5
9 9 9 9 9 9 9 9 8 9 8 7 8 8 7 6 5 4 3 2 2 1 2 2 2 3 2 2 1 1 1 1 2 2 2 3 3 4 5 6 6 6 6
9 9 9 9 9 9 9 9 8 8 8 8 8 8 7 6 5 5 4 3 2 2 1 1 2 2 2 2 2 1 1 2 2 2 3 3 3 4 5 6 6 7 7
9 9 9 10 10 10 11 10 9 8 8 8 8 8 7 6 6 6 5 4 3 3 2 2 2 2 3 3 2 2 2 2 2 3 3 3 4 5 5 6 7 7 8
9 9 9 10 11 11 11 11 10 9 8 7 8 8 7 7 6 6 6 5 5 4 3 3 4 4 3 3 3 3 3 3 4 4 4 4 5 5 6 6 7 7 7
9 9 9 10 10 10 10 10 10 8 8 8 8 8 8 7 7 7 7 7 6 5 5 5 5 5 5 4 5 5 5 5 5 6 6 6 6 6 7 7 8 8 9
9 9 9 9 10 10 10 10 10 9 9 9 9 9 8 8 8 8 8 9 8 8 7 6 6 6 6 6 6 6 6 7 7 7 7 7 7 8 9 9 10 10 10
9 9 10 9 9 10 10 11 11 10 10 10 10 10 10 10 9 9 9 9 9 9 8 7 7 7 7 7 8 8 8 9 9 9 9 9 10 10 10 11 11 11 12
8 9 10 10 10 10 11 10 11 11 11 11 11 11 11 11 11 11 11 10 9 9 8 8 8 8 8 8 8 9 9 10 9 9 10 10 10 11 11 12 13 13 14
8 9 9 10 11 11 11 11 11 11 11 11 11 11 11 11 11 11 11 10 10 10 9 9 9 9 9 10 10 10 10 10 10 11 11 11 11 11 12 13 14 14 15
9 9 9 10 9 10 10 11 11 12 12 12 12 11 11 11 11 10 10 10 10 10 9 10 11 11 11 11 11 11 11 11 11 11 11 12 12 13 14 15 15 16 17
8 8 8 8 9 9 10 11 12 11 12 12 12 12 12 11 11 11 11 11 11 11 11 11 12 12 12 12 12 12 13 13 13 13 13 14 14 15 16 17 17 18 18
8 8 9 9 9 9 10 11 11 11 12 11 11 11 12 12 12 12 12 12 13 13 13 13 13 13 13 14 14 14 15 15 15 15 15 16 17 17 18 18 19 19 20
9 10 10 9 9 10 10 11 11 11 11 11 11 12 12 12 12 13 13 13 13 14 14 14 14 14 14 14 15 15 16 16 16 17 17 18 18 19 19 20 20 20 21
9 9 10 10 10 10 10 10 11 11 11 11 11 12 12 12 13 14 14 14 14 14 15 15 15 16 16 16 17 17 17 17 17 18 18 19 20 20 21 21 22 22 23
10 11 10 10 10 11 11 11 12 12 11 11 12 12 13 14 14 14 14 14 15 15 15 15 15 15 16 16 17 18 18 19 19 19 20 21 21 21 21 22 23 23 24
11 11 11 11 11 11 11 11 12 12 12 12 12 13 13 14 13 14 14 14 14 14 15 15 15 16 16 17 18 19 19 19 19 20 21 21 21 22 23 24 25 25 26
12 11 11 12 12 12 12 12 12 12 13 13 12 12 12 13 13 14 15 15 15 15 15 15 16 17 17 18 18 19 19 20 20 21 21 22 23 23 24 25 26 27 28
13 12 12 12 12 13 13 13 13 13 13 13 13 13 13 13 14 14 15 15 15 15 16 17 17 17 17 18 19 20 20 21 21 22 23 23 24 24 25 26 27 28 30
14 13 13 13 13 13 13 13 14 14 14 14 13 13 13 14 14 15 15 15 15 15 16 16 17 18 18 19 20 21 21 22 22 23 24 24 25 26 27 28 29 30 30
15 14 14 14 14 13 14 14 14 14 14 14 14 14 14 14 14 14 15 15 15 16 16 17 18 18 19 20 21 22 22 23 24 25 25 26 27 28 28 29 30 31 31
15 15 15 15 15 15 14 14 14 14 14 14 14 14 14 14 14 14 15 16 16 17 17 18 18 19 21 21 22 23 24 25 25 26 27 28 29 29 30 31 31 32 32
17 16 16 16 16 16 16 16 16 16 15 15 15 15 15 15 16 16 17 17 17 18 18 19 20 21 22 23 24 25 25 26 27 27 28 28 29 30 31 31 32 33 34
18 17 17 17 17 17 17 17 17 17 17 16 16 16 16 17 17 17 18 18 18 19 19 20 21 21 23 24 25 26 27 27 28 28 28 28 29 30 31 31 32 34 35

GEFSMW_500_meanwind_198.txt.gz
Wind_Speed
10 9 8 8 8 8 7 6 6 6 6 6 6 6 5 5 4 4 4 3 3 4 4 3 3 3 3 3 3 3 4 4 3 2 2 2 2 2 2 3 3 3 3
10 9 8 8 7 7 7 6 6 5 5 5 5 5 5 5 5 4 3 3 3 3 3 3 3 3 3 3 3 3 3 3 3 3 2 2 2 2 3 4 4 4 5
9 9 8 7 6 6 6 7 6 5 5 5 6 6 5 6 5 4 3 2 2 2 3 2 2 2 2 3 3 3 3 3 3 3 2 2 2 3 3 4 5 5 6
8 8 7 7 7 7 7 7 7 6 6 6 6 7 6 5 5 4 3 2 2 2 2 2 2 2 2 3 3 3 3 4 4 3 3 3 3 3 4 5 5 5 6
8 7 7 7 7 7 7 7 8 7 6 7 7 6 5 5 5 4 3 2 2 2 2 2 1 2 2 3 3 4 4 4 4 4 4 4 4 4 5 5 5 6 7
7 7 7 7 7 6 7 7 8 7 7 8 7 6 6 5 5 4 3 3 3 2 2 2 2 3 3 3 4 5 5 5 5 6 6 6 6 6 6 6 6 7 7
7 7 7 7 6 7 7 8 8 8 8 7 6 7 7 6 6 5 4 4 4 3 3 3 4 4 4 4 5 5 6 6 6 7 7 7 8 8 8 8 8 8 8
8 8 8 8 7 8 8 8 7 7 7 6 6 6 6 6 6 5 5 5 5 4 4 4 5 5 5 6 6 6 7 7 7 7 8 8 8 8 9 9 9 9 10
9 9 9 9 9 9 8 8 7 7 7 6 6 7 6 6 7 6 6 6 6 6 6 6 6 6 6 7 7 7 7 7 7 7 8 8 8 9 9 9 10 10 11
9 9 9 9 9 8 8 7 7 7 7 7 7 7 7 7 7 7 7 7 7 7 7 7 7 7 7 7 7 7 7 7 8 8 8 9 9 9 10 10 11 11 12
8 8 8 9 8 8 8 7 7 8 7 7 7 7 8 8 9 9 8 8 8 8 8 8 8 7 7 8 8 8 8 9 9 9 9 9 10 10 11 12 12 13 13
8 8 8 9 8 8 8 8 8 8 8 8 8 9 9 9 9 9 9 9 9 8 8 8 8 8 8 9 9 9 9 10 10 10 10 10 11 12 12 13 14 14 14
8 8 8 9 9 9 9 8 8 8 8 8 8 8 8 9 9 9 9 9 9 9 9 8 8 9 10 10 11 11 11 11 11 11 12 12 12 13 14 14 15 15 16
9 9 9 9 9 9 10 9 9 9 9 8 8 9 9 9 9 9 9 9 10 10 10 11 11 11 11 12 12 12 13 13 13 13 13 14 14 15 15 16 16 17 18
9 9 9 9 10 9 9 9 10 9 9 9 9 9 9 9 9 10 10 10 10 11 12 12 13 13 13 13 13 13 13 13 14 14 15 15 16 16 16 17 18 18 19
10 9 9 10 10 10 10 10 10 10 10 10 10 10 10 10 10 10 11 11 12 12 13 13 12 12 13 13 14 14 14 14 15 15 15 16 16 17 17 18 19 19 20
10 10 10 10 10 10 10 10 10 10 10 10 11 11 11 11 10 11 12 12 12 13 13 13 12 12 13 14 14 14 15 15 15 15 16 16 17 17 18 19 20 21 22
11 11 10 11 11 10 10 10 10 10 10 10 11 11 11 11 11 12 13 12 13 13 14 13 13 13 14 14 15 15 15 15 16 17 18 18 18 19 20 20 22 23 24
12 12 12 12 12 11 11 10 10 10 10 11 11 11 12 12 13 13 13 13 13 14 14 14 14 14 15 15 16 16 16 17 17 18 19 19 20 21 22 23 24 24 25
13 13 13 13 12 13 12 11 11 11 11 11 11 11 12 12 13 14 14 14 14 14 14 14 14 15 15 16 16 17 17 18 19 19 20 21 22 23 23 24 24 25 26
13 13 13 13 13 13 13 13 12 12 12 12 12 12 12 12 13 14 14 15 15 15 15 14 15 15 15 16 17 17 18 19 20 20 21 22 23 24 24 25 26 27 28
14 14 14 13 13 13 13 13 13 13 14 14 13 13 14 14 14 14 14 14 15 15 15 15 15 15 16 17 17 18 19 20 20 21 22 22 24 25 26 27 28 28 29
16 15 14 14 14 14 14 14 14 15 15 15 15 15 16 15 15 15 15 15 15 15 15 16 16 16 17 18 18 19 20 20 21 22 23 24 25 26 27 28 28 29 30
17 17 16 16 15 15 15 15 16 16 16 16 16 17 16 16 16 16 16 16 16 16 16 16 17 17 18 18 19 20 21 22 22 23 24 25 26 27 28 28 29 30 31
18 17 17 17 17 17 17 17 17 17 17 17 17 17 17 17 17 17 17 17 17 17 17 18 18 18 19 20 21 22 22 23 24 25 25 26 27 28 28 29 29 30 31
19 19 18 18 18 18 18 18 18 19 18 18 18 18 18 18 18 18 18 18 18 18 18 19 20 20 21 22 22 23 24 25 26 26 27 28 29 30 30 30 31 31 33

GEFSMW_500_meanwind_204.txt.gz
Wind_Speed
6 7 7 7 6 6 6 6 6 6 6 5 5 5 5 4 4 3 3 3 3 2 2 1 1 1 1 0 1 1 2 3 2 1 1 2 2 2 2 3 3 4 4
6 7 7 6 6 6 5 6 6 5 5 5 5 5 5 4 3 4 3 3 3 2 2 2 2 2 2 1 1 1 1 2 2 2 2 2 2 2 3 3 4 4 4
5 7 7 6 6 6 5 6 6 6 6 6 5 5 4 4 4 4 3 3 3 2 2 2 1 2 1 1 1 1 2 2 2 2 2 2 2 3 3 4 4 5 5
5 6 6 6 6 6 6 6 6 6 6 6 6 5 4 3 4 4 3 3 3 3 2 2 2 2 2 2 1 2 2 2 2 2 2 2 2 3 3 4 4 5 5
5 5 5 6 6 6 6 5 6 6 6 7 6 6 5 4 4 4 4 3 3 3 2 2 2 2 2 2 3 3 3 3 3 3 3 4 3 4 5 5 5 6 5
4 5 5 5 6 6 6 6 6 6 7 7 7 7 6 6 6 6 4 4 4 3 2 2 3 2 3 3 4 4 4 4 4 5 5 5 5 5 6 6 6 7 7
4 5 5 4 5 6 6 6 6 6 6 7 7 7 6 6 7 6 5 5 5 4 3 3 3 3 3 4 4 4 5 5 6 6 6 6 6 6 6 6 6 7 7
5 5 5 5 5 5 6 6 6 6 6 7 8 7 7 6 6 6 6 6 5 5 4 3 3 4 4 4 4 4 5 6 6 6 6 6 6 7 7 7 7 7 7
4 5 5 6 5 5 5 6 6 6 6 7 7 7 7 7 6 7 7 6 6 6 5 4 5 5 4 5 5 6 6 6 6 6 7 7 7 8 8 8 8 8 8
4 4 5 6 6 6 6 6 6 6 6 7 7 7 7 7 7 7 7 7 7 7 7 6 6 6 6 7 6 6 6 7 7 7 7 8 8 8 9 9 10 10 10
5 5 5 5 6 6 6 6 7 7 7 8 7 8 8 8 8 7 7 7 7 7 7 7 8 8 8 7 7 7 7 7 7 7 8 8 9 9 10 10 11 11 11
5 5 5 5 6 7 7 7 7 7 7 8 8 8 9 9 8 7 7 7 7 7 8 8 8 8 9 9 9 9 9 8 8 9 9 9 10 10 10 11 11 11 11
5 5 5 5 6 7 7 7 7 7 7 7 7 8 9 9 9 9 8 8 8 8 8 8 8 9 9 10 9 10 10 10 10 10 11 11 11 11 11 11 12 12 12
6 6 6 5 6 6 6 7 7 7 7 7 8 8 9 9 9 10 10 10 9 9 9 10 9 10 10 10 11 11 11 12 12 12 12 11 11 11 12 12 13 13 13
7 6 6 6 6 7 7 7 8 8 8 8 9 9 9 10 10 10 10 10 10 10 10 10 11 10 11 11 11 11 11 12 12 12 11 11 12 12 12 13 13 14 14
7 7 7 7 7 8 8 8 8 8 8 9 9 9 9 10 10 10 11 11 11 11 11 12 12 12 12 12 11 11 11 11 11 11 12 12 12 13 14 14 15 15 16
7 7 7 7 8 9 9 9 9 9 9 10 10 10 10 10 10 11 11 11 11 11 12 13 12 12 12 12 12 12 12 12 12 12 12 13 14 14 15 16 17 18 18
8 8 8 8 8 9 9 9 9 9 10 10 11 11 11 11 11 12 12 12 12 12 13 13 13 13 13 13 13 12 13 13 13 13 13 14 15 16 16 17 18 19 20
10 10 9 9 8 9 9 9 9 9 9 10 11 12 12 13 13 13 13 13 13 13 13 13 13 14 14 14 13 13 13 14 14 14 14 15 16 17 17 18 19 20 21
11 11 10 10 10 10 10 10 10 10 10 11 11 12 12 12 13 13 14 14 14 14 14 14 14 14 14 14 14 14 14 15 15 16 16 17 18 18 19 20 21 21 22
13 12 12 11 11 11 11 11 11 11 11 12 12 13 13 13 13 14 14 14 15 15 15 15 15 14 14 15 15 16 16 16 16 17 18 19 19 20 21 21 22 22 23
14 14 13 13 13 13 12 12 13 13 13 13 13 14 14 14 14 14 14 14 14 14 15 15 15 16 16 16 17 17 16 17 18 19 19 20 21 21 22 22 22 23 24
15 15 15 14 14 14 14 13 14 15 15 15 15 15 15 16 16 16 16 16 15 15 16 16 16 17 18 18 19 18 18 18 19 20 20 21 21 22 23 23 24 25 26
17 17 16 16 15 15 15 15 16 16 16 16 16 16 17 17 18 18 18 18 17 17 18 18 18 18 19 19 19 19 19 20 20 21 21 22 23 24 24 25 26 26 27
19 18 17 17 17 17 17 17 17 17 17 17 18 18 18 18 18 19 19 19 19 20 19 19 20 20 20 20 20 20 21 21 23 23 23 24 25 26 27 27 28 29 29
21 20 19 19 19 19 18 19 19 18 18 18 19 19 19 19 19 20 20 21 21 21 21 21 21 21 21 21 21 22 22 23 24 25 25 26 26 27 28 29 30 30 31

GEFSMW_500_meanwind_210.txt.gz
Wind_Speed
8 7 7 7 7 6 6 6 7 7 7 7 6 6 6 6 6 6 6 6 5 6 6 5 5 4 4 4 4 5 5 4 4 4 4 4 4 4 4 4 5 5 6
6 6 7 7 7 7 6 6 6 5 6 6 6 6 6 5 5 5 5 5 5 5 5 4 4 3 3 4 4 4 4 4 4 4 4 5 5 4 5 5 5 6 6
6 5 6 7 7 8 7 6 5 5 5 6 6 6 6 5 5 6 5 5 4 3 3 3 2 2 3 4 3 3 4 4 4 5 5 4 4 4 5 6 6 6 6
7 6 7 7 7 7 7 7 6 6 5 5 6 6 5 5 5 5 4 3 3 2 2 3 3 3 3 3 3 3 3 4 4 4 4 4 4 5 6 6 6 6 7
6 6 7 7 7 7 6 6 6 6 6 6 6 6 6 5 5 4 3 3 3 3 3 3 3 3 4 4 4 4 4 4 4 4 5 5 5 6 7 7 7 7 7
7 7 7 7 6 7 6 6 6 6 6 6 6 6 6 6 5 4 4 4 4 4 4 3 3 4 4 5 5 5 5 5 5 5 6 6 6 7 7 7 7 7 7
7 6 6 7 7 7 7 7 7 7 6 6 6 6 6 6 5 5 5 4 4 4 4 4 4 4 4 4 5 5 6 6 6 7 7 7 6 7 7 7 8 8 8
6 6 7 7 7 7 7 7 7 8 8 7 7 7 7 6 6 6 6 5 5 4 4 4 4 4 5 5 5 6 7 7 8 8 8 7 7 7 7 8 8 9 9
6 6 7 7 7 7 6 6 7 7 8 8 7 7 7 7 7 7 7 6 5 5 5 5 5 5 5 6 6 7 7 8 8 8 8 8 8 8 8 9 9 9 10
7 7 7 7 7 7 7 7 7 7 8 8 8 8 8 7 7 7 7 7 7 7 6 6 7 6 6 7 7 7 7 7 8 8 8 9 9 9 10 10 10 10 11
7 6 7 7 7 7 7 7 7 7 7 7 8 8 8 8 8 8 7 7 7 7 7 7 7 7 7 7 7 7 7 7 8 9 9 10 10 10 10 11 11 11 11
7 6 7 7 7 7 7 7 7 7 8 7 7 7 8 8 8 8 8 8 8 8 8 8 8 8 8 8 8 8 8 8 9 10 10 10 10 11 11 11 11 11 11
7 7 7 7 7 7 7 7 7 7 8 8 8 8 8 8 8 8 8 8 9 9 8 8 8 8 8 8 9 9 10 10 10 10 11 11 11 11 11 11 11 12 12
8 7 8 7 7 7 7 7 8 8 8 8 8 8 8 8 8 8 8 8 9 9 9 9 9 9 9 9 9 10 10 11 11 10 11 11 11 11 11 12 12 13 14
9 9 9 8 8 7 8 7 8 7 7 8 7 8 8 8 9 9 9 9 9 9 9 9 10 10 9 10 10 11 11 11 11 11 11 11 11 12 12 13 14 14 15
10 10 10 9 9 8 8 8 8 8 8 8 8 9 9 9 9 9 10 10 10 10 10 10 10 10 10 11 12 12 12 12 12 12 12 13 13 13 14 14 15 16 16
11 11 11 10 10 9 9 8 8 8 9 9 9 9 10 10 10 10 10 11 11 11 11 12 12 12 12 12 13 13 13 13 13 13 14 14 14 14 15 16 16 17 18
11 11 11 10 10 9 9 9 9 9 9 9 10 10 10 11 11 11 12 12 12 12 13 13 13 13 13 13 13 14 14 14 14 15 15 15 16 16 17 17 17 18 19
12 11 11 11 10 10 10 10 10 10 11 10 11 11 12 12 12 12 13 13 14 14 14 14 14 15 15 15 15 15 15 15 15 16 16 17 17 18 18 19 19 20 21
13 12 12 12 11 11 11 11 11 11 12 12 12 12 13 13 14 13 14 14 14 15 15 16 16 16 16 16 16 16 16 16 16 17 18 18 18 18 19 20 20 21 22
15 14 13 13 12 12 12 12 12 13 13 13 13 13 13 13 14 15 15 15 15 15 15 16 17 17 17 17 17 18 18 18 18 19 19 20 20 20 21 22 22 23 24
17 16 15 14 14 13 13 13 12 13 13 14 14 15 15 15 15 16 17 17 17 16 16 17 17 18 18 18 19 19 20 20 20 20 21 21 22 22 23 23 24 24 25
19 18 17 16 16 15 15 14 14 15 15 15 16 16 17 17 17 17 18 18 18 17 18 18 18 19 19 20 21 21 21 21 21 22 23 23 23 23 24 24 25 26 26
20 20 19 18 18 18 17 17 17 16 17 17 18 18 18 19 18 18 19 19 19 19 19 20 20 20 21 21 22 22 22 22 23 23 24 24 24 25 25 26 26 27 28
21 21 21 21 20 20 19 18 18 18 19 19 20 19 19 19 19 20 20 21 21 21 21 21 21 22 22 22 23 23 23 24 25 25 25 25 26 26 27 28 28 29 30
23 23 22 22 22 21 20 20 20 21 21 21 21 21 21 21 21 21 21 22 22 23 23 23 23 23 23 24 24 25 25 26 26 27 27 27 27 28 29 30 30 31 32

GEFSMW_500_meanwind_216.txt.gz
Wind_Speed
6 6 7 7 7 7 8 8 8 7 7 7 7 7 7 6 6 6 6 6 6 6 5 5 5 5 5 6 6 6 6 6 6 6 6 6 6 6 6 6 6 5 5
6 6 6 6 6 6 6 6 6 6 6 7 7 6 6 6 6 6 6 6 5 5 5 4 4 5 4 5 5 6 6 6 6 6 6 6 6 5 5 5 6 5 6
7 7 6 6 5 5 5 5 4 5 5 6 6 6 5 5 5 4 4 4 4 4 4 4 4 3 3 4 4 5 5 5 6 5 5 5 5 4 4 5 5 5 6
7 6 6 6 5 5 5 5 5 4 4 5 5 5 5 4 4 4 4 3 3 3 3 3 3 3 4 4 4 4 4 4 5 5 5 5 5 5 5 6 6 7 7
6 6 6 6 6 6 6 6 5 5 5 5 5 5 5 4 4 3 3 3 3 3 3 3 3 3 3 3 4 5 5 4 5 5 5 5 5 6 6 7 7 7 7
6 6 6 6 6 6 6 6 5 5 5 5 5 5 5 4 4 4 4 4 3 3 3 3 3 3 3 4 4 4 5 5 5 5 5 6 6 6 7 7 7 7 6
6 6 6 6 6 6 6 5 5 5 5 5 5 5 4 4 4 4 4 4 4 4 4 4 3 4 4 4 5 5 5 5 5 5 6 6 7 7 7 7 7 7 7
6 5 6 5 5 6 6 6 6 5 5 5 5 5 5 5 5 4 4 4 4 4 4 4 4 4 4 5 5 6 6 6 6 6 7 6 7 7 7 7 7 7 7
6 6 6 5 6 5 5 5 6 6 5 5 6 6 6 5 5 5 5 4 5 4 4 4 4 4 4 5 6 6 6 6 7 7 7 7 7 7 7 8 8 8 8
6 6 5 5 5 5 5 4 5 5 5 5 6 6 6 6 6 6 5 5 5 5 5 5 5 5 5 6 6 6 7 7 7 8 8 8 8 8 8 8 8 8 8
6 6 6 5 4 5 5 5 5 6 6 6 6 7 7 7 7 6 5 5 5 5 5 5 5 6 6 6 7 7 7 6 7 8 8 8 9 9 9 9 8 8 9
7 7 6 5 5 5 5 5 6 6 6 7 7 7 7 7 7 6 5 5 5 5 5 5 5 5 5 6 6 6 6 7 7 8 8 8 8 9 9 9 9 9 9
8 7 6 6 6 6 6 6 6 6 6 6 7 6 6 6 7 6 6 6 6 7 7 6 5 5 5 6 6 6 6 7 8 8 8 9 9 8 9 9 9 10 10
8 8 8 7 7 7 7 7 6 6 6 6 6 6 7 7 7 7 7 6 6 7 7 6 7 6 6 7 7 7 8 8 8 8 8 8 8 9 10 10 10 11 12
9 9 9 9 8 8 8 7 7 7 6 6 6 7 7 7 8 8 7 7 8 8 7 7 7 7 8 8 8 8 8 8 9 9 9 10 10 10 11 12 12 13 14
11 11 10 10 10 9 9 9 8 8 8 7 8 7 7 8 8 9 9 9 8 8 8 8 9 9 9 9 9 9 10 10 10 10 10 10 11 11 12 14 15 15 16
13 12 12 11 11 10 10 10 10 9 9 9 8 8 8 8 9 9 9 9 9 9 10 10 10 10 10 10 10 10 11 12 12 12 12 13 13 14 14 15 16 17 17
14 14 13 12 12 11 11 11 11 11 10 10 10 9 9 10 9 9 9 9 9 10 11 11 11 11 11 11 11 12 13 13 13 14 14 15 15 15 16 17 17 18 19
14 14 14 13 13 12 12 12 12 12 11 11 11 11 11 10 10 10 10 10 10 11 11 11 12 12 12 12 13 13 14 14 15 16 16 16 17 17 18 19 19 20 20
16 15 14 14 14 13 13 13 13 13 13 13 12 12 12 12 12 11 12 12 12 12 12 12 13 13 13 13 14 15 15 16 16 17 18 19 19 19 20 20 21 21 22
18 17 16 16 15 15 15 15 14 14 14 14 14 14 13 13 14 14 14 13 14 14 14 14 14 14 15 15 16 16 17 17 18 19 20 20 21 22 22 22 22 22 23
19 19 18 17 17 17 16 16 16 15 16 16 15 15 15 15 15 16 16 16 16 16 16 16 16 17 17 17 17 18 18 19 20 20 21 22 23 23 23 23 24 24 25
21 20 20 19 19 19 18 17 17 16 16 17 17 17 17 17 18 18 18 18 18 18 18 18 18 19 19 20 20 20 20 20 21 22 23 24 24 24 25 25 26 27 27
23 22 21 21 20 20 19 19 18 19 19 19 19 19 19 19 19 19 19 20 20 20 20 20 20 21 21 21 21 21 21 22 23 23 24 25 26 26 27 27 27 28 29
24 24 23 22 21 21 21 20 20 21 21 21 21 21 21 21 21 21 21 21 22 22 22 22 22 22 22 22 22 22 24 24 25 25 26 27 28 28 28 28 29 30 30
26 25 24 24 23 23 22 22 22 22 22 22 22 22 22 23 23 23 22 23 24 23 23 23 23 23 24 24 24 25 25 26 27 28 28 29 29 29 29 30 30 31 31

GEFSMW_500_meanwind_222.txt.gz
Wind_Speed
9 8 8 8 8 8 9 8 9 8 8 8 7 7 7 7 7 7 7 7 6 6 6 6 6 6 6 6 6 6 6 6 6 5 6 6 7 7 7 8 8 7 7
9 8 8 8 8 8 8 8 8 7 7 6 6 6 6 6 6 5 5 5 5 5 5 5 5 5 5 5 5 5 5 5 5 5 5 5 6 7 7 8 7 7 7
9 9 8 8 7 8 8 8 8 7 6 5 5 5 5 4 5 4 4 4 4 5 4 4 4 4 5 4 4 5 5 5 4 5 5 5 6 6 7 7 6 6 7
10 10 8 8 8 8 8 9 7 6 5 4 4 4 4 4 4 4 3 3 4 4 3 4 3 4 4 4 5 5 4 4 5 5 5 6 6 6 6 6 6 6 7
10 9 8 8 8 8 8 7 7 6 5 4 4 4 4 4 4 4 3 3 3 3 4 4 3 3 3 4 4 4 4 4 5 5 5 6 7 6 6 6 6 6 7
9 8 7 7 7 7 7 7 7 7 5 4 4 4 4 4 4 4 4 4 3 3 4 3 3 3 4 4 4 4 4 5 5 5 6 7 7 7 7 7 7 8 8
8 8 7 7 7 7 7 7 7 7 5 5 4 4 4 4 4 4 4 4 3 3 3 3 4 4 4 4 4 4 5 5 6 6 6 7 7 8 8 8 8 9 8
9 8 8 7 7 7 7 7 7 7 6 5 5 5 5 5 5 5 5 4 4 4 4 4 5 5 5 5 5 5 5 5 5 6 6 7 8 8 8 8 9 9 9
9 9 8 8 7 8 8 7 7 6 5 5 5 5 6 6 5 6 5 5 5 5 5 5 4 5 5 5 5 5 5 5 6 6 7 7 7 8 9 9 9 9 10
9 9 8 8 8 8 8 7 7 6 5 5 5 5 5 5 5 6 6 6 5 5 5 5 5 5 5 6 6 6 6 7 7 7 7 8 8 8 9 10 10 10 10
9 9 9 9 8 8 8 7 6 6 5 5 5 5 6 6 6 6 6 6 6 5 5 6 6 6 6 7 7 7 6 7 7 7 8 8 8 9 9 9 9 9 9
10 10 9 9 9 8 8 8 7 7 6 6 6 7 7 7 7 7 7 7 7 6 6 7 6 6 6 7 7 7 7 7 7 8 8 8 9 9 9 9 10 10 11
11 10 9 9 8 8 8 8 8 7 8 7 7 7 7 7 7 7 7 7 8 7 7 7 7 7 6 6 6 6 7 7 7 8 8 9 9 10 10 10 11 11 12
11 10 10 10 9 9 9 10 9 8 8 8 8 7 8 8 8 7 7 8 8 8 7 7 8 8 7 7 8 8 8 8 8 9 9 10 10 11 11 11 11 12 13
13 12 11 11 11 10 10 10 10 9 9 9 9 9 9 8 8 9 8 8 8 8 7 8 8 8 8 8 9 10 9 9 10 11 11 12 12 12 12 12 12 13 14
15 14 13 13 13 12 12 11 11 11 10 10 10 10 10 10 9 9 9 9 9 8 8 8 8 9 9 9 10 10 11 11 12 12 13 13 13 13 13 13 14 15 16
16 15 15 14 14 14 13 12 12 12 12 11 11 11 11 11 10 10 10 9 9 9 9 9 10 10 10 10 11 11 12 13 13 14 14 14 14 14 14 15 16 17 18
17 17 16 15 15 15 14 14 13 13 13 13 12 12 12 11 11 11 11 11 11 10 11 11 11 11 11 12 12 13 14 14 14 14 15 15 16 16 17 17 18 18 19
18 17 16 16 16 16 15 15 14 14 14 14 13 13 13 13 13 12 12 12 12 12 12 12 12 13 13 13 13 14 14 14 15 16 16 17 17 18 19 20 20 20 21
19 18 17 17 17 17 17 17 16 15 15 15 15 15 15 14 14 14 14 14 14 13 14 14 15 14 14 15 15 15 15 16 16 17 17 18 18 19 20 21 21 22 23
20 20 19 19 19 19 19 18 17 17 17 17 17 16 16 15 15 15 15 15 15 15 15 16 16 16 16 16 17 17 17 17 17 17 18 19 20 21 21 23 24 24 25
22 21 21 21 21 20 20 19 19 18 18 18 17 17 17 16 16 16 16 16 16 16 16 16 16 17 17 18 18 18 18 18 19 20 20 21 22 23 24 25 26 26 27
23 23 23 22 22 22 22 21 21 20 20 19 19 19 18 18 18 18 18 18 17 18 18 18 18 18 19 19 19 19 20 20 21 22 23 24 25 25 26 27 27 27 28
25 25 25 24 23 23 23 23 23 22 22 21 21 21 20 20 20 20 20 20 20 20 20 20 20 21 21 21 21 22 22 22 23 24 25 26 26 27 28 28 29 29 30
27 27 26 26 25 25 24 24 24 23 23 23 23 22 22 22 21 22 21 21 22 22 22 22 22 22 22 23 24 24 24 25 25 26 26 27 28 28 28 29 29 30 30
28 28 28 27 27 26 26 25 25 25 25 24 24 24 24 24 24 24 24 24 23 23 23 23 24 24 24 25 25 26 26 27 28 28 28 28 29 29 29 30 30 30 30

GEFSMW_500_meanwind_228.txt.gz
Wind_Speed
7 8 7 7 6 6 7 6 5 5 5 5 5 5 5 6 6 6 6 6 6 5 5 6 6 6 6 6 6 6 6 7 7 8 8 9 9 9 8 8 9 10 10
7 7 7 7 6 6 6 6 6 6 5 5 5 4 5 4 4 4 4 4 4 4 3 4 4 4 5 5 5 6 6 7 7 7 8 8 8 8 8 8 8 9 9
7 7 7 6 6 6 6 6 6 6 5 5 5 4 4 4 3 3 2 2 2 3 3 3 3 3 4 5 5 5 6 6 6 7 7 7 7 7 7 7 7 8 8
7 7 7 6 6 6 6 6 6 5 5 4 4 4 4 3 3 2 1 1 2 2 3 2 2 3 4 4 4 4 4 4 5 5 5 6 5 6 6 6 6 7 7
7 7 7 7 6 6 6 6 6 5 5 4 4 3 3 3 3 2 2 3 3 2 2 3 2 2 3 3 4 4 4 4 4 5 5 5 6 6 5 6 6 7 7
7 7 7 7 7 6 5 5 5 5 5 4 3 3 2 2 2 3 3 3 3 2 3 3 3 3 3 3 4 4 4 4 4 5 5 5 5 5 6 7 7 8 8
6 7 7 7 7 6 6 5 5 5 5 4 3 3 3 3 3 3 3 4 4 3 3 4 4 3 3 3 4 4 5 5 5 5 6 6 6 5 6 7 8 8 9
6 7 7 7 7 7 6 6 6 6 5 4 4 4 3 3 3 3 3 4 4 3 3 4 4 4 4 4 4 5 5 4 4 5 5 6 6 6 6 7 8 8 9
7 6 7 7 7 7 7 6 6 6 5 4 4 4 4 3 3 3 4 4 5 5 4 4 4 4 4 4 4 4 4 4 5 5 6 6 6 7 7 8 9 9 9
7 7 6 6 6 7 7 7 6 6 5 4 4 4 4 4 4 4 5 5 5 5 5 5 5 5 5 5 4 5 5 6 7 7 7 6 7 7 8 9 9 9 9
8 7 7 6 7 7 7 7 7 6 5 5 5 4 5 5 5 5 5 5 5 5 5 5 5 5 6 6 6 6 6 7 7 7 7 7 7 8 8 9 9 10 10
8 8 7 7 7 7 7 7 7 6 6 5 5 5 5 5 5 5 5 6 6 6 6 6 6 7 7 7 8 8 7 7 8 8 8 8 8 9 9 9 10 10 11
9 9 9 9 8 7 7 8 8 7 7 7 7 7 7 7 7 7 7 6 6 7 6 6 7 8 8 8 7 7 8 8 8 8 8 8 9 9 10 10 11 11 11
10 10 10 10 9 8 8 8 8 8 7 7 8 8 7 7 7 8 8 8 8 7 7 7 8 8 7 7 7 7 8 9 8 9 9 10 10 10 11 11 11 12 12
11 11 11 11 10 10 10 9 9 9 8 8 8 9 8 8 8 8 8 8 8 8 8 8 8 8 7 7 8 8 8 8 9 9 10 11 11 11 11 12 13 13 14
13 13 13 12 12 12 11 11 11 10 9 9 9 9 9 9 9 9 9 9 9 9 9 9 8 8 8 8 8 9 9 9 10 10 11 12 12 12 13 14 14 14 15
15 14 14 14 13 13 13 13 12 11 11 11 10 10 10 11 11 11 10 10 10 10 9 9 9 9 9 9 9 10 10 11 12 12 12 13 13 14 14 15 16 16 17
17 16 16 15 15 15 14 14 14 13 13 12 12 12 12 12 12 11 12 11 11 11 10 10 10 10 10 11 11 11 12 13 13 14 14 14 14 15 16 16 17 18 19
18 18 17 16 16 15 15 15 14 14 14 13 13 13 12 13 13 13 13 13 13 13 13 13 13 13 13 14 14 14 14 14 15 15 15 15 15 16 16 17 18 19 20
20 19 18 18 17 17 16 15 15 15 15 15 14 14 13 14 14 13 14 14 14 14 14 14 14 15 15 15 16 16 16 16 16 16 16 16 17 17 18 19 20 21 22
21 21 20 19 19 18 18 17 17 17 17 16 16 16 15 15 16 15 15 15 15 15 15 15 16 16 17 17 17 17 17 17 18 18 18 18 18 19 20 20 21 22 23
23 22 22 21 20 20 20 19 19 19 19 19 18 18 17 17 17 17 17 16 16 16 16 17 17 18 18 19 19 19 19 19 19 20 20 21 21 21 21 22 22 23 24
24 24 23 23 22 22 22 21 21 20 20 20 20 20 19 19 19 18 19 19 19 18 19 19 19 19 19 20 20 20 21 21 21 22 22 23 23 23 23 23 24 25 25
25 25 25 24 23 22 22 23 22 22 22 22 21 21 21 20 20 20 20 20 21 21 20 20 20 20 21 21 21 21 22 22 23 23 24 25 25 25 25 25 26 26 27
26 26 27 26 25 24 24 24 24 24 24 24 23 23 22 22 22 22 22 22 22 23 23 23 23 22 22 22 22 23 23 23 24 25 25 25 26 26 26 27 27 28 28
27 28 28 27 27 27 26 25 25 25 25 25 25 24 24 24 24 24 24 23 23 24 24 24 24 24 24 24 23 24 25 25 26 26 26 26 27 27 28 28 29 28 28

GEFSMW_500_meanwind_234.txt.gz
Wind_Speed
7 7 7 6 5 5 5 5 6 6 6 5 5 6 6 5 5 5 5 5 4 4 4 4 4 5 6 6 6 6 7 8 8 8 8 9 9 9 9 10 10 11 11
7 6 6 6 5 5 5 5 6 5 5 5 5 5 5 5 4 3 3 3 3 3 3 4 4 5 5 6 6 6 7 8 8 8 8 8 9 9 9 10 10 10 11
6 5 5 5 5 5 5 6 6 5 6 5 5 5 5 4 4 4 3 3 3 3 3 4 4 4 5 5 5 6 6 6 6 7 7 8 8 8 8 10 10 10 10
5 5 5 5 5 5 5 6 6 5 5 5 4 4 4 4 4 4 3 3 3 4 4 4 5 5 5 4 4 5 5 5 6 6 6 6 6 7 7 8 8 9 9
5 5 5 5 5 5 5 5 5 5 5 4 4 4 4 4 3 3 3 3 3 4 4 4 4 4 4 4 4 4 5 5 5 5 5 5 5 5 6 7 8 8 8
5 5 5 5 5 5 5 5 5 5 5 5 4 4 4 3 3 3 4 4 3 3 4 5 5 4 4 4 5 6 5 5 5 5 5 5 6 6 6 7 8 8 8
6 5 5 5 5 5 6 6 5 5 6 5 5 4 4 4 4 4 4 4 4 4 4 5 5 5 5 5 6 6 6 5 5 5 5 5 5 6 6 7 8 7 8
6 6 6 6 6 6 6 6 6 5 5 5 5 4 4 5 4 5 5 5 5 5 4 5 5 6 6 6 6 6 6 6 6 6 5 5 5 6 7 7 8 8 9
6 6 6 6 6 6 6 6 6 6 6 5 4 4 5 5 5 5 5 5 5 5 5 5 6 6 7 7 7 7 6 6 6 6 6 5 6 6 7 8 9 9 10
7 7 6 6 7 7 7 6 6 6 6 5 5 5 5 5 5 5 6 5 5 6 5 6 7 7 7 7 8 8 7 7 7 7 7 7 8 8 8 8 9 9 9
9 8 7 7 7 7 7 7 8 8 7 6 6 5 5 5 6 6 6 6 6 6 7 7 7 7 7 7 7 8 8 8 8 8 8 8 8 8 9 9 9 10 10
10 9 9 8 8 8 9 9 9 9 8 8 7 6 6 6 6 7 7 6 6 7 7 8 8 8 8 8 8 8 8 8 8 9 9 9 9 10 10 10 10 10 11
11 10 10 10 10 10 10 9 9 9 9 8 8 8 7 7 7 7 7 7 8 8 9 8 8 8 8 9 9 9 9 8 8 9 9 10 11 11 11 11 11 11 12
12 12 11 11 11 10 10 10 10 10 9 9 9 9 8 8 8 8 8 9 9 9 9 9 9 9 9 10 10 9 9 9 10 11 11 11 11 11 11 11 12 12 13
14 14 13 12 12 12 12 11 11 10 10 10 10 9 9 10 10 10 10 10 10 10 10 10 10 10 9 10 9 9 10 10 11 11 11 11 12 11 12 12 13 14 14
17 16 15 14 14 13 13 13 12 12 11 11 11 11 10 11 11 11 11 11 11 11 11 10 10 10 10 10 10 10 10 11 11 11 11 12 12 12 13 13 14 15 16
18 17 17 17 16 15 14 14 13 13 13 12 12 12 12 12 12 12 12 11 11 11 11 11 11 11 11 11 12 12 12 12 12 12 12 12 13 14 14 15 15 16 17
19 19 19 18 17 16 16 15 15 14 13 13 13 13 13 13 13 13 13 12 12 12 12 12 12 13 13 13 13 13 13 13 13 14 14 14 14 15 15 16 17 18 18
20 20 20 20 19 19 18 18 17 16 15 15 15 14 14 14 14 14 14 14 14 14 13 13 14 14 15 15 15 15 15 15 15 15 16 16 16 17 17 18 18 19 20
21 21 21 21 21 20 20 20 19 18 17 16 16 16 15 15 15 15 15 15 16 15 15 15 15 16 16 17 17 17 17 17 17 17 17 18 19 19 20 20 20 21 21
23 23 23 23 22 22 22 22 21 20 19 19 18 18 17 17 17 17 17 17 17 16 16 16 17 17 17 18 18 17 18 18 19 19 19 20 21 22 22 22 22 23 23
24 25 25 25 25 24 23 23 22 21 21 21 20 20 19 19 19 19 18 18 18 18 18 18 18 18 18 19 19 19 20 20 19 20 21 21 22 23 23 24 24 25 25
26 26 26 26 26 26 25 24 23 23 23 22 22 22 22 21 21 21 20 20 20 20 20 20 20 20 20 20 21 21 21 21 21 22 22 23 23 24 25 25 26 26 27
27 27 27 27 27 28 27 27 26 25 25 25 25 24 23 23 23 23 23 22 22 22 22 22 22 22 22 22 23 23 23 24 24 23 23 24 25 25 26 26 27 28 29
27 27 28 28 28 29 28 28 28 27 26 26 26 25 24 24 24 25 25 24 24 24 24 24 23 23 23 24 25 25 25 25 26 26 26 26 27 27 28 28 28 29 29
26 27 28 29 29 29 29 28 28 28 27 26 26 26 25 25 25 25 26 26 26 26 26 26 26 25 26 26 26 27 27 28 28 28 28 28 29 29 29 29 30 30 30